Miscellaneous Local Product
Issued by NWS Hastings, NE

Home | Current Version | Previous Version | Graphics & Text | Print | Product List | Glossary On
Versions: 1 2 3 4 5 6 7 8 9 10 11 12 13 14 15 16 17 18 19 20 21 22 23 24 25 26 27 28 29 30 31 32 33 34 35 36 37 38 39 40 41 42 43 44 45 46 47 48 49 50
000
AXUS43 KGID 271602
MISGRI

GID CWA HOURLY WEATHER ROUNDUP
NATIONAL WEATHER SERVICE HASTINGS NE
1100 AM CDT SAT MAY 27 2017

NOTE: "FAIR" INDICATES FEW OR NO CLOUDS BELOW 12,000 FEET WITH NO
SIGNIFICANT WEATHER AND/OR OBSTRUCTIONS TO VISIBILITY.

...SOUTH CENTRAL NEBRASKA...

CITY           SKY/WX    TMP DP  RH WIND       PRES   REMARKS
GRAND ISLAND   MOSUNNY   66  51  58 E15       29.92R
HASTINGS       CLOUDY    65  53  65 E13       29.91R
KEARNEY        SUNNY     64  50  59 NE12      29.93R
ORD            SUNNY     65  51  60 NE10      29.94S
YORK           PTSUNNY   64  52  63 E13       29.91S
AURORA         PTSUNNY   66  51  57 NE15      29.91S
LEXINGTON      SUNNY     65  52  62 NE8       29.95R
HOLDREGE       SUNNY     64  51  64 NE8       29.93R
HEBRON         CLOUDY    63  56  79 E16       29.87F

...NEBRASKA PANHANDLE...

CITY           SKY/WX    TMP DP  RH WIND       PRES   REMARKS
CHADRON        CLOUDY    59  48  67 NW6       30.05R
ALLIANCE       CLOUDY    58  48  69 NW15      30.04R
SCOTTSBLUFF    CLOUDY    58  45  62 NW13      30.07S
SIDNEY         CLOUDY    51  47  86 NW13      30.07S

...WESTERN AND NORTH CENTRAL NEBRASKA...

CITY           SKY/WX    TMP DP  RH WIND       PRES   REMARKS
VALENTINE      CLOUDY    56  50  80 N6        30.02S
AINSWORTH      CLOUDY    55  51  86 N12       30.01S
ONEILL         CLOUDY    58  51  78 NE5       29.98R
BROKEN BOW     PTSUNNY   65  52  62 NE9       29.96R
IMPERIAL       CLOUDY    57  50  77 N15       30.01S
NORTH PLATTE   CLOUDY    61  53  75 NW12      29.99R
MCCOOK         MOSUNNY   67  55  65 NE7       29.94S

...EASTERN NEBRASKA...

CITY           SKY/WX    TMP DP  RH WIND       PRES   REMARKS
NORFOLK        CLOUDY    66  49  54 N14       29.92F
SO SIOUX CITY  CLOUDY    63  51  65 NE7       29.94R
TEKAMAH        CLOUDY    63  52  67 E8        29.91F
ALBION         CLOUDY    67  48  50 N10       29.95R
OMAHA EPPLEY   RAIN      58  53  84 N9        29.88F
OFFUTT AFB     RAIN      57  54  88 NE14G24   29.82F
MILLARD        CLOUDY    60  56  86 NE5       29.86F
LINCOLN        CLOUDY    65  54  67 NE12      29.89S
NEBRASKA CITY  PTSUNNY   59  59 100 NE12      29.88F
BEATRICE       CLOUDY    62  55  78 CALM      29.90R
FALLS CITY     CLOUDY    62  59  90 SW6       29.90S

...NORTHERN KANSAS...

CITY           SKY/WX    TMP DP  RH WIND       PRES   REMARKS
GOODLAND       CLOUDY    57  53  86 NW17      30.00R
HILL CITY      MOSUNNY   70  59  68 NW10      29.91R
NORTON         CLOUDY    64  54  68 N8        29.91R
PHILLIPSBURG   SUNNY     66  57  72 N5        29.89S
SMITH CENTER   PTSUNNY   64  57  77 N8        29.89S
HAYS           PTSUNNY   68  59  73 NW10      29.89R
RUSSELL        PTSUNNY   68  58  70 N7        29.85R
CONCORDIA      CLOUDY    63  60  90 NE14G24   29.83R
SALINA         SUNNY     69  61  75 E10G21    29.82F
TOPEKA         TSTM      63  62  97 NE5       29.93R



USA.gov is the U.S. government's official web portal to all federal, state and local government web resources and services.